Regional Weather Roundup
Issued by NWS

Home | Current Version | Previous Version | Graphics & Text | Print | Product List | Glossary On
Versions: 1 2 3 4 5 6 7 8 9 10 11 12 13 14 15 16 17 18 19 20 21 22 23 24 25 26 27 28 29 30 31 32 33 34 35 36 37 38 39 40 41 42 43 44 45 46 47 48 49 50
974
ASUS44 KLIX 141310
RWRLA
LOUISIANA WEATHER ROUNDUP
NATIONAL WEATHER SERVICE NEW ORLEANS LA
800 AM CDT SUN SEP 14 2014

NOTE: "FAIR" INDICATES FEW OR NO CLOUDS BELOW 12,000 FEET WITH NO
      SIGNIFICANT WEATHER AND/OR OBSTRUCTIONS TO VISIBILITY.
      SKY/WX - SKY CONDITION AND SIGNIFICANT WEATHER.
      TMP - AIR TEMPERATURE.    DP   - DEWPOINT TEMPERATURE.
      RH  - RELATIVE HUMIDITY.  PRES - PRESSURE.
      HX  - HEAT INDEX.         WCI  - WIND CHILL INDEX.

*  THESE STATIONS ARE NOT NWS OR FAA STATIONS AND ARE NOT UNDER
   NWS QUALITY CONTROL.

LAZ040-048-061>063-065-066-069-141400-
SOUTHEAST LOUISIANA

CITY           SKY/WX    TMP DP  RH WIND       PRES   REMARKS
N.O. AUDUBON     N/A     73  70  90 MISG        N/A
N.O. INTL ARPT CLOUDY    74  69  85 NE14      30.11R
N.O. LAKEFRONT CLOUDY    73  69  87 NE13      30.12R
N.O. DOWNTOWN* CLOUDY    73  64  73 N9        30.11S
SLIDELL        MOSUNNY   70  66  87 NE7       30.12R
BATON ROUGE    CLOUDY    69  66  90 VRB3      30.14R FOG
BOOTHVILLE     CLOUDY    82  77  84 E14       30.07R
BELLE CHASSE   CLOUDY    74  68  81 NE10      30.10R
BOGALUSA*        N/A     69  64  85 NE5       30.16R HAZE
GALLIANO*      NOT AVBL
NEW ROADS*     CLOUDY    68  66  94 N5        30.15R
GONZALES*      CLOUDY    71  71 100 N7        30.13R
HAMMOND*       MOSUNNY   70  64  83 N6        30.15S
HOUMA*         PTSUNNY   73  70  88 NE13      30.10R
PORT FOURCHON* CLOUDY    79  73  83 NE16G22   30.10R

$$

LAZ041-044-053-054-141400-
SOUTHWEST LOUISIANA

CITY           SKY/WX    TMP DP  RH WIND       PRES   REMARKS
LAKE CHARLES   CLOUDY    66  63  90 NE12      30.15R
LAFAYETTE      CLOUDY    69  67  93 NE7       30.14R
PATTERSON      CLOUDY    72  70  94 N9        30.14R
SALT POINT       N/A     74  70  87 VRB6      30.10R
NEW IBERIA     CLOUDY    71  67  87 NE10      30.14R
CHENAULT AIRPK CLOUDY    66  63  88 NE9       30.17R FOG

$$

LAZ027-028-141400-
CENTRAL LOUISIANA

CITY           SKY/WX    TMP DP  RH WIND       PRES   REMARKS
FORT POLK      CLOUDY    63  61  93 N8        30.17R
ALEXANDRIA INT CLOUDY    65  62  90 N6        30.16R
ALEXANDRIA     CLOUDY    66  62  87 CALM      30.18R

$$

LAZ001-002-141400-
NORTHWEST LOUISIANA

CITY           SKY/WX    TMP DP  RH WIND       PRES   REMARKS
SHREVEPORT     MOSUNNY   64  56  75 NE7       30.21R
BARKSDALE AFB  SUNNY     61  56  85 NE8       30.21F
DTN SHREVEPORT SUNNY     62  56  80 NE6       30.22R

$$

LAZ014-016-141400-
NORTHEAST LOUISIANA

CITY           SKY/WX    TMP DP  RH WIND       PRES   REMARKS
MONROE         CLOUDY    63  59  87 N6        30.21S
TALLULAH       CLOUDY    66  61  84 N7        30.20R

$$




USA.gov is the U.S. government's official web portal to all federal, state and local government web resources and services.